Location: Newark
(48.1500°N, 2.9667°W)
Time: 09:43:54
(UTC+00:00)

A-11 Canister half - Pass Details

Date: 24 January 2020
Orbit: 1524 x 1684 km, 47.3° (Epoch: 22 February)

Event Time Altitude Azimuth Distance (km) Brightness Sun altitude
Rises 01:12:52 0° 290° (WNW) 4,792 - -59.6°
Reaches altitude 10° 01:16:25 10° 281° (W) 3,829 - -59.3°
Maximum altitude 01:24:23 30° 225° (SW) 2,638 - -58.7°
Drops below altitude 10° 01:32:33 10° 170° (S) 3,911 - -58.0°
Sets 01:36:15 0° 160° (SSE) 4,910 - -57.7°
